www.pogodaiklimat.ru

Погода и климат >> Архив погоды >> Россия >> Приморский край >> Гамов


ПОГОДА в Гамове

  • Прогноз погоды в Гамове
  • Монитор погоды в Гамове

АРХИВ ПОГОДЫ в Гамове

Время (UTC), дата Ветер
(напр.,м/с)
 
Видим.   Явления Облачность Т
(С)
Тd
(С)
f
(%)
Тe
(С)
Тes
(С)
Комфортность P
(гПа)
Po
(гПа)
Тmin
(С)
Tmax
(С)
R
(мм)
R24
(мм)
S
(см)
09 11.08 ЮВ 5
{10}
н/о н/о +17.6 +17.1 97 +17 +17 1010.9 1006.0 +18.6 6
12 11.08 ЮВ 5 н/о н/о +18.1 +17.1 94 +18 1012.9 1006.7
15 11.08 В 5 н/о н/о +17.6 +17.3 98 +17 1012.9 1006.7
18 11.08 В 4 н/о н/о +17.7 +17.5 99 +17 1011.5 1005.3
21 11.08 В 5 н/о н/о +17.5 +17.3 99 +17 +17 1008.3 1003.4 +17.3 2
00 12.08 ЮВ 4 н/о н/о +18.1 +17.8 98 +18 1011.5 1005.3
03 12.08 В 3 н/о н/о +18.7 +18.5 99 +20 1011.5 1005.3
06 12.08 штиль 0 н/о н/о +19.0 +18.7 98 +21 1010.2 1004.0
09 12.08 В 2 н/о н/о +18.5 +18.2 98 +20 +20 1008.2 1003.3 +19.1 23
12 12.08 В 3 н/о н/о +18.6 +17.9 96 +20 1011.5 1005.3
15 12.08 ЮВ 3 н/о н/о +18.7 +18.2 97 +20 1011.5 1005.3
18 12.08 ЮВ 3 н/о н/о +18.7 +18.4 98 +20 1010.2 1004.0
21 12.08 ЮВ 3 н/о н/о +18.7 +18.1 96 +20 +20 1008.9 1004.1 +18.2 1
00 13.08 В 5 н/о н/о +19.0 +18.3 96 +20 1011.5 1005.3
03 13.08 В 5 н/о н/о +18.8 +18.3 97 +20 1011.5 1005.3
06 13.08 В 6 н/о н/о +18.0 +17.5 97 +17 1011.5 1005.3
09 13.08 В 7-10
{12}
н/о н/о +17.5 +17.2 98 +17 +17 1009.1 1004.2 +19.1 25
12 13.08 В 4 н/о н/о +17.8 +17.5 98 +18 1012.9 1006.7
15 13.08 В 4 н/о н/о +17.7 +17.4 98 +17 1011.5 1005.3
18 13.08 В 4 н/о н/о +17.6 +17.3 98 +17 1011.5 1005.3
21 13.08 В 8-15
{15}
н/о н/о +17.8 +17.1 96 +17 +17 1007.6 1002.8 +17.4 6
00 14.08 В 6 н/о н/о +18.3 +17.6 96 +18 1010.2 1004.0
03 14.08 В 6 н/о н/о +18.0 +17.5 97 +17 1010.2 1004.0
06 14.08 В 5 н/о н/о +17.9 +17.3 96 +17 1010.2 1004.0
09 14.08 В 4 н/о н/о +18.2 +17.3 94 +18 +18 1006.1 1001.3 +18.4 1
12 14.08 В 4 н/о н/о +18.2 +17.4 95 +18 1008.9 1002.7
15 14.08 В 4 н/о н/о +17.8 +17.6 99 +18 1008.9 1002.7
18 14.08 В 4 н/о н/о +17.6 +17.4 99 +17 1007.5 1001.3
21 14.08 В 4 н/о н/о +17.7 +16.7 94 +17 +17 1004.5 999.7 +17.2 0.8
00 15.08 В 3 н/о н/о +18.0 +17.5 97 +18 1006.2 1000.0
03 15.08 В 5 н/о н/о +18.3 +17.6 96 +18 1004.9 998.7
06 15.08 В 3 н/о н/о +17.8 +17.5 98 +18 1002.2 996.0
09 15.08 В 5-10
{10}
н/о н/о +18.9 +18.6 98 +20 +20 1000.8 994.7 +18.9 31
12 15.08 ЮВ 2 н/о н/о +19.8 +19.3 97 +23 999.4 993.3
15 15.08 В 9 н/о н/о +18.7 +17.9 95 +19 998.1 992.0
18 15.08 ЮВ 3 н/о н/о +18.4 +17.7 96 +19 995.4 989.3
21 15.08 З 5 н/о н/о +18.9 +18.5 98 +20 +20 992.5 987.7 +18.2 29
00 16.08 З 1 н/о н/о +19.6 +19.1 97 +23 994.1 988.0
03 16.08 штиль 0 н/о н/о +20.2 +19.9 98 +24 992.7 986.7
06 16.08 З 3 н/о н/о +20.2 +19.9 98 +24 992.7 986.7
09 16.08 З 3 н/о н/о +20.3 +19.9 98 +25 +25 комфорт 991.4 986.6 +20.9 23
12 16.08 З 4 н/о н/о +19.9 +19.2 96 +23 995.4 989.3
15 16.08 З 8 н/о н/о +20.1 +19.3 95 +23 995.4 989.3
18 16.08 З 5 н/о н/о +19.8 +19.3 97 +23 995.4 989.3
21 16.08 З 2 н/о н/о +19.8 +19.3 97 +23 +23 комфорт 994.2 989.4 +19.6
00 17.08 В 1 н/о н/о +19.6 +19.3 98 +23 998.1 992.0 +19.5
03 17.08 ЮВ 4 н/о н/о +18.2 +17.9 98 +18 999.4 993.3
06 17.08 В 9 н/о н/о +17.4 +16.8 96 +16 998.2 992.0
09 17.08 В 7-12
{17}
н/о н/о +17.4 +16.7 96 +16 +16 997.9 993.1 +20.0 8
12 17.08 В 7-11
{13}
н/о н/о +17.2 +16.8 97 +16 +16 1000.5 995.7
15 17.08 В 8 н/о н/о +17.4 +16.8 96 +16 1003.5 997.3
18 17.08 В 9 н/о н/о +17.1 +16.6 97 +16 1004.9 998.7
21 17.08 В 4
{14}
н/о н/о +17.0 +16.5 97 +16 +16 1003.8 999.0 +16.9 0.8
00 18.08 В 4 н/о н/о +17.2 +16.6 96 +17 1008.9 1002.7
03 18.08 В 4 н/о н/о +17.1 +16.5 96 +17 1008.9 1002.7
06 18.08 ЮВ 3 н/о н/о +17.3 +16.3 94 +17 1008.9 1002.7

 

Местоположение метеостанции Гамов (Приморский край, Россия): широта 42.55 долгота 131.22 высота над уровнем моря 53 м.

В архиве по умолчанию представлена погода в Гамове за последнюю неделю. Архивные данные за месяц целиком и за предыдущие месяцы, начиная с января 2011 года, Вы можете получить, выбрав интересующий диапазон дат из раскрывающегося списка и нажав кнопку "Ввод!".


*Определитесь, кто Вы:
робот инопланетянин человек

Внимание! Время в таблицах - всемирное. Для получения местного времени необходимо прибавить поправку, которая равна 10 ч.

Смотрите также архив погоды в соседних городах и на ближайших метеорологических станциях:

Погода в Посьете (Приморский край, Россия) (36 км)
Погода в Сонбонге (КНДР) (72 км)
Погода в Барабаше (Приморский край, Россия) (74 км)
Погода на Мысе Назимова (Приморский край, Россия) (79 км)
Погода в Владивостоке (Приморский край, Россия) (84 км)
Погода в Находке (Приморский край, Россия) (132 км)
Погода в Многоудобном (Приморский край, Россия) (144 км)
Погода в Чхонджине (КНДР) (144 км)
Погода в Яньцзи (Гирин, Китай) (145 км)
Погода в Тимирязевском (Приморский край, Россия) (158 км)

Пояснения к столбцам:

Ветер - указаны скорость ветра в м/с - средняя за 10 мин, порывы в срок и между сроками (в фигурных скобках) и направление, откуда дует ветер: С - северный, СВ - северо-восточный, В - восточный, ЮВ - юго-восточный, Ю - южный, ЮЗ - юго-западный, З - западный, СЗ - северо-западный.
Видимость - горизонтальная дальность видимости в метрах или километрах. При видимости от 1 до 10 км при отсутствии осадков обычно наблюдается дымка, при ухудшении видимости до 1 км и менее - туман. В сухую погоду видимость может ухудшаться дымом, пылью или мглою.
Явления - указаны атмосферные явления, наблюдавшиеся в срок или в последний час перед сроком; фигурными скобками обозначены явления, наблюдавшиеся между сроками (за 1-3 часа до срока); квадратными скобками обозначены град или гололедные отложения с указанием их диаметра в мм.
Облачность - указаны через наклонную черту общая и нижняя облачность в баллах и высота нижней границы облаков в метрах; квадратными скобками обозначены формы облаков: Ci - перистые, Cs - перисто-слоистые, Cc - перисто-кучевые, Ac - высококучевые, As - высокослоистые, Sc - слоисто-кучевые, Ns - слоисто-дождевые, Cu - кучевые, Cb - кучево-дождевые. Подробнее классификацию облаков см. в Атласе облаков (PDF).
T - Температура воздуха - температура, измеренная на высоте 2 м над землей.
Td - Температура точки росы - температура, при понижении до которой содержащийся в воздухе водяной пар достигнет насыщения.
f - Относительная влажность воздуха - влажноcть воздуха, измеренная на высоте 2 м над землей.
Te - Эффективная температура - температура, которую ощущает одетый по сезону человек в тени. Характеристика душности погоды. При расчете учитывается влияние влажности воздуха и скорости ветра на теплоощущения человека.
Tes - Эффективная температура на солнце - температура, которую ощущает человек, с поправкой на солнечный нагрев. Характеристика знойности погоды. Зависит от высоты солнца над горизонтом, облачности и скорости ветра. Ночью, в пасмурную погоду, а также при ветре 12 м/с и более поправка равна нулю.
P - Атмосферное давление - приведенное к уровню моря атмосферное давление.
Po - Атмосферное давление - измеренное на уровне метеостанции атмосферное давление.
Tmin - Минимальная температура - минимум температуры воздуха на высоте 2 м над землей.
Tmax - Максимальная температура - максимум температуры воздуха на высоте 2 м над землей.
R - Количество осадков - Количество выпавших осадков за период времени, мм. При наведении курсора мыши на число - период времени, за который выпало указанное количество осадков.
R24 - Количество осадков - Количество выпавших осадков за 24 часа, мм.
S - Снежный покров - Высота снежного покрова, см. При наведении курсора мыши на число - состояние снежного покрова и степень покрытия местности в баллах.